Theta_e
336 336 337 336 336 336 335 334 334 335 335 333 334 334 334 334 334 333 333 332 331 331 330 331 330 330 330 330 331 333 333 333 332 335 336 334 330 325 322 325 330 332 332 331 330 330 330 329 328 327 328 328 327 326 323 319 318 319 320 317 313 310 307 307 308 308 308 308 310 312 312 315 317 319 321 321 320 319 319 320 320 320 320 320 320
335 334 336 336 335 335 334 334 333 333 334 333 333 334 334 334 334 333 332 331 331 331 331 331 330 330 330 329 330 331 332 333 332 334 336 335 330 325 323 324 329 332 332 331 331 330 330 330 328 327 328 328 328 327 325 322 322 324 325 323 320 316 311 307 306 305 305 305 306 307 309 311 313 316 318 319 318 317 317 319 320 319 319 319 320
335 334 335 335 335 334 334 334 333 333 333 333 333 333 333 333 332 331 331 331 331 331 331 330 331 330 329 330 330 330 331 332 332 333 335 335 331 326 323 325 329 331 331 331 331 330 331 330 329 327 327 327 328 328 325 323 324 326 327 326 324 320 315 310 307 306 305 304 304 306 307 307 308 311 314 315 316 317 318 318 319 320 319 319 319
336 335 335 335 334 334 334 334 334 333 334 334 333 332 332 332 331 330 331 332 332 332 331 330 330 330 330 330 330 329 330 331 331 332 333 335 332 326 324 325 327 330 331 331 330 330 330 330 329 328 327 327 328 327 325 324 324 326 327 327 326 322 319 314 310 308 306 306 305 305 306 304 304 306 308 311 314 317 318 318 318 319 320 319 319
337 337 336 334 334 334 334 335 336 334 334 334 333 332 333 332 332 331 333 334 333 332 332 330 330 331 330 329 329 329 329 330 331 331 332 334 333 328 325 325 325 326 329 330 330 330 330 330 330 329 327 327 328 327 326 325 325 326 327 327 326 323 321 317 313 311 309 308 307 306 305 303 302 303 304 307 310 314 316 317 317 318 319 319 319
336 337 336 334 334 335 334 335 335 335 334 334 333 333 333 333 332 332 333 333 333 333 332 331 330 330 330 329 329 329 329 329 329 331 332 333 332 331 328 326 324 324 327 329 329 329 330 330 329 329 328 328 327 326 326 326 325 326 327 327 327 324 323 320 316 315 313 311 310 309 308 306 303 302 303 304 306 309 313 315 317 316 316 317 318
335 336 335 334 334 335 334 334 334 334 333 333 332 333 333 332 332 333 333 332 332 333 332 331 330 330 330 330 329 329 329 329 329 330 331 331 332 332 330 328 327 326 326 327 327 328 329 329 328 328 328 328 327 327 327 326 326 326 326 328 327 325 324 323 321 318 316 314 313 312 311 310 308 304 302 301 302 305 308 312 314 313 313 315 317
336 335 334 334 335 335 335 335 334 334 333 332 332 333 333 333 333 334 334 333 332 333 331 330 330 330 330 330 329 329 330 330 329 329 329 330 332 333 331 330 329 328 327 326 326 326 327 328 328 327 328 328 327 328 328 327 326 327 328 328 327 325 324 324 325 323 319 315 315 316 315 314 313 309 305 301 301 302 303 307 310 310 310 312 315
335 335 334 334 335 335 335 335 334 334 333 333 333 333 334 334 334 334 333 332 333 333 331 330 329 330 330 330 330 330 330 331 331 331 329 329 331 332 331 331 330 329 328 326 326 326 325 326 327 326 327 326 326 328 328 327 327 327 328 328 327 326 323 323 324 324 323 320 318 319 319 318 317 315 312 306 302 301 301 303 305 307 309 311 313
335 335 334 334 334 334 334 334 334 334 333 333 334 333 333 334 334 334 332 332 333 333 332 330 330 330 330 330 331 330 329 330 331 332 330 329 330 331 331 330 330 330 330 328 327 327 327 327 327 326 326 324 324 328 328 327 328 327 327 329 329 327 325 324 325 325 325 323 322 322 322 321 321 319 317 313 307 302 301 302 303 305 309 313 313
335 334 334 334 334 332 332 332 332 333 332 333 333 333 333 333 333 333 332 332 333 333 332 331 331 330 330 330 331 331 329 330 332 332 331 330 329 330 330 330 330 330 330 329 327 327 327 327 328 327 327 325 324 327 328 327 329 329 328 329 329 329 327 327 328 327 327 326 325 324 324 323 322 322 320 318 314 308 303 302 303 303 305 310 311
334 334 334 334 333 332 332 332 332 333 333 333 333 333 334 332 333 333 332 332 333 333 333 331 330 330 330 330 330 331 330 329 330 331 331 331 330 330 330 330 329 329 330 330 329 327 328 328 329 330 329 328 327 327 328 328 329 329 330 330 330 330 329 329 329 329 329 328 327 325 324 325 325 324 323 321 319 316 311 306 304 303 301 303 304
333 333 333 333 332 333 333 332 332 333 333 332 332 333 333 333 333 333 333 333 333 332 331 331 331 331 331 331 331 331 331 330 330 331 331 331 332 331 330 330 330 330 330 330 330 329 329 329 330 331 329 328 328 328 327 328 328 328 329 330 330 330 330 330 330 330 330 329 329 327 325 325 326 325 325 324 322 320 319 314 309 306 302 300 300
331 331 331 331 331 332 333 333 333 332 332 332 332 333 333 333 333 333 333 333 331 331 331 331 331 331 331 331 331 331 331 330 330 331 331 332 332 331 330 330 331 331 331 330 330 330 330 329 329 329 328 328 328 328 327 327 328 328 328 329 330 330 330 330 330 331 330 330 330 329 328 326 325 324 325 325 325 323 321 319 316 312 309 305 301
328 329 329 329 330 330 330 331 331 331 331 331 332 333 332 332 332 332 332 331 330 330 331 330 330 331 331 332 332 332 332 330 329 330 330 331 331 330 329 330 330 330 330 329 329 329 329 329 328 328 328 328 329 328 329 328 329 329 328 329 329 329 329 329 330 331 331 330 330 329 329 329 326 324 324 325 325 324 322 321 320 318 316 312 307
326 326 327 328 329 329 328 329 330 330 329 329 331 332 331 331 332 332 331 331 330 329 330 329 329 330 331 332 332 332 333 331 329 329 330 331 330 329 329 329 330 330 329 329 328 328 328 328 328 328 328 329 329 329 329 329 330 329 328 328 328 327 328 327 328 331 331 330 330 330 329 330 329 328 327 325 323 323 322 322 321 321 319 317 316
326 326 327 328 328 328 328 328 329 328 328 328 329 330 330 330 331 331 330 331 330 329 330 329 329 330 329 332 333 333 333 331 330 330 330 329 328 328 329 329 329 329 328 329 329 328 328 328 328 328 327 328 327 328 328 329 328 328 328 327 327 327 327 326 327 329 330 330 330 330 329 329 329 329 328 327 325 324 324 323 322 322 321 320 320
326 326 327 327 328 327 327 327 327 327 327 328 328 328 329 329 330 329 329 331 330 329 329 329 330 330 329 331 332 332 332 331 331 331 329 328 327 327 328 328 329 329 328 328 328 328 328 328 329 328 327 326 326 326 327 328 328 328 328 327 327 327 326 326 326 326 327 328 329 329 329 330 330 329 329 328 327 327 325 324 323 323 322 322 322
325 325 326 327 327 327 327 327 326 326 326 327 327 327 328 329 330 329 329 330 329 329 330 329 329 329 329 330 330 330 331 331 331 332 330 328 327 327 327 327 327 327 328 328 328 328 328 329 328 327 327 327 327 326 327 327 326 326 326 326 326 326 326 326 326 326 326 327 327 328 328 329 329 329 329 329 329 328 327 326 326 325 325 324 324
325 325 325 326 326 326 326 326 325 325 326 326 327 328 328 329 330 329 330 330 329 329 329 328 328 328 329 329 329 330 330 330 330 331 330 329 327 326 326 326 327 327 327 326 326 327 326 326 326 327 327 326 326 325 324 324 324 323 323 324 325 325 326 326 326 326 326 326 327 327 328 328 329 328 328 329 329 328 329 328 328 328 327 326 325
324 325 325 325 325 325 325 325 324 323 325 326 327 327 328 328 329 330 330 329 329 330 329 328 329 329 329 328 328 329 328 329 329 329 329 329 328 326 325 326 326 326 325 325 325 325 322 321 322 323 324 324 324 324 323 323 323 323 324 325 326 325 326 325 326 326 325 327 328 328 328 328 328 329 328 328 328 328 328 328 328 328 327 327 326
324 324 325 325 324 324 324 323 323 324 324 325 326 326 326 326 327 329 330 330 330 330 329 329 329 329 328 327 327 328 327 328 328 328 328 328 328 326 325 325 326 325 324 324 324 324 322 319 318 318 318 318 319 320 321 321 321 322 322 322 322 322 323 323 323 324 325 326 327 327 325 322 323 326 327 326 326 327 326 326 326 326 326 327 326
323 323 323 323 322 322 322 323 323 324 324 323 324 324 324 325 326 327 328 329 329 329 328 328 328 328 327 327 327 328 328 327 327 327 328 328 328 327 323 323 324 324 322 320 320 321 320 319 317 315 314 313 313 314 315 315 314 315 315 315 314 314 315 315 316 317 318 319 320 321 319 317 318 321 323 323 322 321 321 322 322 321 321 322 322
321 321 322 321 320 320 323 324 324 323 322 322 321 322 322 323 324 325 326 327 327 327 327 326 327 327 328 327 326 327 327 328 327 327 329 328 327 325 322 320 321 321 320 319 319 319 319 318 317 316 315 313 311 311 311 311 310 310 311 310 310 309 309 310 310 310 311 311 312 312 312 312 314 317 318 319 319 317 317 318 318 316 316 315 316
320 321 321 321 321 320 322 323 323 323 322 321 320 320 321 322 322 323 324 325 325 324 324 324 324 325 326 325 325 325 326 327 328 328 327 325 325 324 321 319 319 318 318 318 317 317 318 317 317 316 315 314 313 311 309 310 309 308 308 307 306 306 306 306 306 306 306 306 307 307 307 308 309 310 311 312 312 313 312 313 313 312 312 312 311
320 319 320 320 320 321 320 321 320 321 321 320 318 318 319 320 320 320 320 320 321 322 321 321 320 321 322 321 322 322 324 325 326 325 324 323 324 323 321 320 319 317 316 315 314 315 317 317 317 316 316 315 314 310 306 306 306 305 304 303 303 303 303 303 304 303 304 304 304 305 306 306 306 307 307 308 308 309 309 309 309 309 309 309 309
319 319 318 319 319 319 320 319 320 320 319 319 317 317 318 318 317 318 318 317 318 319 318 318 317 317 318 318 318 318 321 323 324 323 323 323 323 321 321 323 322 319 316 313 313 313 314 315 315 315 314 314 313 310 306 306 308 306 303 302 302 302 302 301 302 302 302 302 303 303 304 305 306 306 307 307 307 308 308 308 308 308 308 308 309
319 318 318 317 317 317 318 318 319 318 319 318 317 317 317 316 315 316 317 317 316 317 317 317 316 316 316 316 316 316 317 319 321 321 322 322 321 321 321 321 322 322 318 315 313 311 312 313 313 313 312 311 310 310 309 309 310 311 307 303 302 302 302 302 301 301 301 301 301 301 301 302 303 304 305 306 306 307 307 307 307 307 307 307 308
319 318 317 317 316 316 317 317 317 317 318 318 317 317 315 315 315 315 315 316 316 317 317 317 317 316 316 316 316 316 316 316 317 318 319 320 320 320 319 318 319 322 320 319 317 312 309 311 310 310 310 309 310 310 309 309 310 312 310 307 304 304 304 304 304 304 304 304 303 303 302 301 301 301 301 302 303 304 305 305 306 306 306 307 307
319 318 318 317 316 316 316 317 317 317 317 317 316 316 316 316 316 315 316 316 316 317 317 317 318 317 317 317 316 315 315 315 315 315 316 317 318 317 317 318 318 320 319 318 317 312 308 309 308 308 309 308 308 307 306 308 309 311 310 308 306 306 306 307 306 306 306 306 306 305 304 303 301 300 299 299 299 299 300 300 301 302 303 303 304
319 319 318 318 317 317 317 317 317 317 317 316 316 316 316 316 316 315 315 316 316 316 316 317 318 318 318 318 316 316 315 315 315 315 314 315 315 315 316 317 318 318 315 315 317 314 309 308 308 308 308 308 307 307 306 308 309 309 309 308 307 306 307 307 307 306 306 306 306 306 305 304 303 302 301 300 300 299 299 299 299 299 299 299 300
319 319 319 319 318 317 317 317 317 318 317 317 316 317 317 317 316 316 315 316 316 316 316 316 316 316 317 317 317 315 315 314 314 314 314 314 315 314 315 316 317 318 315 313 314 313 309 308 308 308 308 308 308 308 307 309 309 308 308 308 307 307 307 308 308 307 306 306 306 305 304 304 304 303 303 302 302 301 301 301 300 300 300 299 298
320 319 319 319 318 318 317 317 318 318 318 318 318 318 317 317 317 316 315 315 315 316 316 316 316 315 316 316 316 315 315 316 314 313 313 313 314 314 315 315 315 316 315 312 312 311 310 309 309 309 309 309 309 310 309 310 310 309 308 309 308 308 308 308 308 307 307 307 306 305 303 303 303 303 303 303 302 302 302 302 302 302 301 301 300
319 319 318 318 319 318 318 318 318 319 319 319 318 318 317 317 317 317 316 316 316 315 315 315 316 316 315 315 315 315 315 315 315 314 314 314 313 314 315 315 315 316 314 312 311 311 311 310 310 310 311 311 311 310 311 311 310 309 308 309 309 309 308 308 308 308 307 307 307 306 304 303 302 302 302 302 301 302 301 301 301 301 302 301 301
319 319 318 318 319 318 318 318 318 319 319 319 319 318 318 318 318 318 317 316 316 315 315 315 315 315 315 314 314 315 315 315 315 314 315 316 315 315 316 316 317 317 316 314 313 312 312 312 312 311 312 313 311 310 310 310 310 310 309 309 310 309 309 309 309 309 308 308 308 307 306 305 303 303 303 302 302 302 301 301 301 300 301 300 300
318 318 318 318 318 318 319 319 318 318 319 320 320 319 318 319 319 319 318 318 317 317 316 316 315 315 316 316 315 315 316 315 315 315 315 316 316 316 316 317 317 317 317 316 315 315 314 314 313 312 312 313 312 311 311 311 310 311 310 310 310 310 310 310 310 310 309 308 308 308 307 306 304 304 304 303 303 303 302 302 302 301 301 300 299
318 318 318 317 318 318 319 319 319 319 319 320 321 320 320 320 320 319 320 319 319 318 318 317 316 316 317 317 316 316 316 316 314 315 316 316 316 316 315 316 316 316 317 316 316 316 316 315 314 314 313 313 313 312 311 311 311 311 311 311 311 310 311 310 310 310 309 308 308 308 307 306 305 304 304 304 303 303 303 303 303 302 301 301 300
319 319 318 317 318 318 319 319 319 320 320 320 321 321 321 322 321 321 320 321 321 321 320 320 319 318 318 319 318 317 317 317 316 316 317 316 316 316 315 315 316 316 316 316 316 316 316 316 315 314 314 314 313 313 312 311 311 311 311 311 311 311 311 310 310 310 309 309 308 308 308 307 305 305 305 304 304 303 303 304 304 303 302 302 301
321 321 320 319 319 319 319 320 319 320 320 320 321 321 322 322 323 322 322 322 322 322 322 321 320 320 320 320 320 319 318 318 318 317 317 316 317 315 314 314 314 315 315 315 315 316 316 316 315 315 314 314 314 313 313 312 312 311 311 311 312 311 311 310 310 310 309 309 308 308 308 307 306 306 305 305 304 304 303 304 304 304 303 302 302
321 321 321 319 320 320 320 320 320 320 320 321 321 322 322 322 323 324 323 323 323 323 323 322 322 321 321 321 321 320 320 319 318 318 317 316 316 315 314 314 313 314 314 315 315 315 315 315 315 315 315 314 314 313 313 313 312 312 312 312 311 311 310 310 310 309 309 309 308 308 307 307 307 306 306 305 304 304 304 304 304 303 303 303 303
321 321 321 320 320 320 320 320 320 321 321 321 320 321 322 322 322 323 323 323 323 322 322 322 322 321 320 320 320 320 320 320 319 319 318 317 316 317 317 316 315 315 314 314 315 315 315 316 316 315 315 315 314 314 313 313 313 313 312 311 311 310 310 310 309 309 309 309 308 307 307 307 306 306 305 304 304 304 304 304 304 304 304 304 304
322 321 321 320 320 321 321 321 321 321 320 320 320 321 322 322 321 323 323 322 321 321 320 321 322 320 320 320 320 320 321 320 319 319 318 317 317 318 318 318 317 316 315 314 315 315 315 315 315 315 315 315 315 314 313 314 313 312 311 310 310 310 309 309 309 309 309 308 307 307 306 306 305 305 304 304 304 303 303 304 304 304 304 304 304
323 322 322 321 321 321 321 322 321 321 320 320 320 322 322 322 322 323 322 321 321 320 320 321 321 321 319 319 319 320 321 320 320 320 319 318 317 316 318 318 316 315 315 315 315 315 315 315 315 315 315 314 314 313 313 313 311 311 310 309 309 309 309 309 309 308 308 307 306 306 305 305 304 304 304 304 304 303 303 303 303 303 303 303 303
323 322 322 322 322 322 322 321 321 320 319 318 319 320 319 319 321 322 321 321 321 321 320 319 320 320 319 319 319 320 321 321 320 320 319 318 317 315 315 317 316 315 314 314 314 314 314 314 313 314 314 313 313 312 312 312 310 309 309 308 308 308 308 308 308 307 307 306 305 304 304 304 304 304 304 304 304 303 303 302 302 302 302 302 302
322 322 322 322 323 323 322 321 320 320 319 319 320 318 315 316 321 322 320 319 319 319 319 319 319 319 319 319 318 319 321 320 319 320 319 318 317 316 315 315 315 314 314 313 313 312 312 311 310 311 312 312 312 311 311 310 309 308 307 307 307 307 306 306 306 305 305 304 304 304 304 305 304 304 304 304 304 303 303 302 302 302 301 302 302
322 321 321 322 322 322 322 321 320 319 318 318 318 317 315 317 320 320 318 317 317 318 317 317 317 317 318 318 317 319 321 319 317 319 320 318 317 316 316 315 315 315 314 313 313 312 311 310 309 309 311 311 311 310 309 308 307 306 305 305 305 305 304 303 303 303 303 304 304 305 305 305 304 303 304 303 303 303 302 302 301 301 301 301 301
322 322 322 322 322 322 322 322 321 319 318 318 318 318 318 319 319 318 317 317 318 317 317 316 317 317 318 317 317 319 320 319 318 319 319 318 318 317 315 314 314 315 314 313 312 311 310 309 308 309 310 311 310 308 307 306 305 305 304 304 303 302 301 301 301 302 302 303 303 304 304 304 302 302 302 302 302 301 301 301 300 300 300 300 300
322 322 322 322 322 321 322 322 321 321 321 320 318 318 319 318 319 319 318 317 317 317 316 317 317 317 317 316 317 319 319 319 318 318 316 315 316 317 316 314 314 314 312 311 310 309 308 308 308 309 310 310 309 306 305 304 304 303 303 302 301 300 300 300 301 301 301 301 301 301 302 302 301 301 301 301 301 300 300 300 299 299 300 300 300
322 321 321 321 321 321 322 321 321 321 321 320 319 318 319 319 319 318 316 316 317 317 316 317 317 317 316 315 316 317 318 317 314 312 309 308 311 315 316 314 313 313 311 310 309 308 307 307 308 308 308 307 305 304 304 304 303 302 301 301 300 300 299 299 299 300 300 301 301 301 301 301 300 300 300 300 299 299 299 299 299 299 299 299 299
321 321 320 320 320 321 321 321 320 318 318 318 318 317 317 317 317 314 312 315 317 315 315 316 317 316 316 314 314 315 316 313 310 307 305 305 310 314 314 313 312 312 311 310 309 308 306 305 305 305 304 304 304 304 303 303 302 302 301 300 300 299 299 299 299 300 300 300 300 300 300 299 299 299 299 298 298 298 298 298 298 298 298 298 298
319 320 319 319 319 320 320 319 318 316 315 315 315 315 314 313 313 310 310 313 314 314 315 316 316 315 314 313 312 314 314 311 308 307 305 306 311 314 313 312 312 311 310 309 308 307 306 305 304 304 303 303 303 303 303 302 302 302 301 301 300 299 299 299 300 300 300 300 299 299 298 298 298 298 298 298 298 298 298 298 297 297 297 297 297
Wind_Speed
8 8 7 9 9 9 10 9 10 9 6 7 7 5 7 8 6 6 9 10 10 12 11 8 8 9 8 7 9 9 6 6 8 10 10 9 10 9 10 11 12 12 10 9 9 8 8 8 7 6 6 5 5 7 8 9 10 11 11 11 10 10 9 9 10 10 10 10 9 9 9 9 9 9 10 10 9 9 10 11 12 12 12 12 12
7 6 7 9 9 9 8 7 9 8 6 6 7 5 6 7 6 5 6 7 7 7 8 7 7 6 7 9 9 8 6 6 9 11 11 9 10 10 10 11 13 13 11 9 9 9 8 8 7 6 6 5 5 6 7 7 8 10 10 10 10 9 9 8 8 9 9 9 8 9 9 8 8 8 8 8 8 9 10 11 11 11 12 12 11
8 8 9 8 7 8 7 5 6 6 5 5 5 5 6 7 6 6 5 5 5 6 7 7 8 6 6 8 7 8 7 7 10 11 13 11 10 11 12 12 13 13 12 11 9 9 10 9 8 8 7 6 6 6 6 6 7 8 8 9 9 9 8 7 8 8 8 8 8 8 8 8 7 7 7 7 7 9 10 10 11 11 11 11 11
10 10 11 9 6 6 6 5 5 6 6 6 6 6 6 6 6 5 4 2 4 6 6 7 8 9 9 8 7 8 8 8 10 9 13 13 11 12 13 12 11 12 12 13 11 10 10 10 9 9 8 7 6 4 4 5 6 6 6 7 8 8 8 7 7 8 8 8 8 8 8 8 7 7 6 7 7 8 8 8 10 10 10 10 10
11 9 9 8 7 8 7 6 5 7 8 8 7 6 6 4 4 4 3 1 3 5 6 7 7 7 9 8 8 8 2 7 9 7 8 12 13 12 12 10 10 11 12 13 12 11 10 9 9 7 7 7 6 4 4 4 4 4 4 5 6 8 8 7 7 7 8 8 7 8 8 7 7 7 6 6 6 7 7 7 8 9 9 9 9
9 8 7 6 7 7 8 7 7 7 9 10 8 6 7 4 3 3 3 2 3 4 5 6 7 5 6 8 11 15 10 4 2 3 7 11 13 13 12 10 9 10 11 12 11 11 10 9 9 7 6 6 6 4 4 4 3 3 3 3 4 6 7 7 6 6 6 7 7 7 7 7 7 7 6 6 5 5 6 7 6 6 7 8 8
8 8 7 7 7 7 7 7 7 7 8 9 8 6 5 4 3 2 1 2 3 4 5 5 6 5 5 10 13 16 19 17 14 8 7 9 12 14 14 13 12 10 10 11 10 11 10 10 10 8 7 7 6 5 4 4 3 3 2 3 4 4 5 6 6 6 5 5 6 6 6 6 6 6 6 6 5 5 5 5 5 4 4 6 8
8 8 8 7 7 6 7 6 6 6 6 6 5 5 4 2 2 1 0 1 2 3 5 5 5 5 6 10 9 11 17 15 13 10 7 9 13 14 12 12 12 12 11 11 10 10 9 10 9 8 8 8 6 5 4 3 3 3 2 3 4 5 4 4 5 5 5 5 5 4 4 5 5 5 5 6 5 5 4 4 4 4 4 5 6
7 7 7 8 8 7 7 7 6 6 6 5 4 5 4 3 3 2 1 1 1 2 3 4 3 4 7 10 6 5 10 9 12 12 9 10 13 13 11 11 12 12 12 11 10 10 8 8 7 6 6 7 8 7 5 3 3 3 3 3 5 6 5 3 4 4 4 4 5 4 3 4 4 3 4 5 5 5 4 3 3 3 4 4 5
7 7 7 8 8 6 7 8 7 6 6 6 5 4 4 3 3 0 0 2 1 1 2 2 3 5 5 8 8 4 5 8 13 13 10 11 13 13 12 12 14 13 12 11 10 10 10 9 7 6 5 6 8 7 6 5 3 3 3 2 3 5 5 4 4 5 4 3 3 4 3 3 4 3 3 3 4 4 4 3 3 3 3 4 3
7 6 7 7 7 5 5 6 7 6 5 6 5 3 3 3 3 1 0 1 1 2 3 2 3 6 5 7 9 6 7 9 12 13 11 11 10 11 12 12 13 12 11 11 10 10 10 9 8 7 5 6 6 6 6 6 4 3 4 3 1 1 2 1 1 4 5 4 2 2 2 2 4 4 3 2 2 3 3 3 3 2 2 2 2
6 6 6 5 5 4 5 6 5 5 5 5 5 3 2 2 3 2 1 2 2 1 1 1 4 6 7 8 6 5 8 10 10 12 12 11 10 9 11 12 12 10 10 10 10 9 9 8 7 5 4 5 4 4 4 4 4 3 4 4 4 4 3 2 2 5 6 3 2 1 1 1 2 3 3 2 1 1 2 2 3 2 2 1 1
7 6 6 4 4 4 4 4 3 3 4 4 5 4 2 2 2 2 1 2 2 0 1 3 6 6 6 7 4 3 9 11 10 12 13 12 11 9 9 9 10 11 11 10 10 9 8 8 6 3 4 6 5 4 3 4 5 3 3 4 5 6 5 4 3 4 6 4 3 3 2 2 2 2 3 2 1 0 1 0 1 2 2 1 1
7 7 7 6 6 5 4 3 2 3 2 3 4 4 3 2 3 3 2 1 2 1 2 5 6 5 5 5 2 2 8 11 11 11 12 12 11 9 8 8 8 9 9 9 8 7 6 6 3 2 4 7 7 5 3 5 5 4 4 4 4 4 4 4 4 5 5 5 4 3 4 4 4 3 3 3 1 1 1 2 1 0 0 1 0
7 8 8 7 5 5 5 3 2 2 2 2 3 2 3 3 3 3 2 2 2 1 3 5 6 5 4 4 1 1 4 8 9 9 9 10 9 9 10 8 7 7 7 7 5 4 5 4 2 2 4 6 7 4 3 5 5 4 5 6 5 5 5 5 5 4 4 4 4 5 6 6 6 5 3 3 2 2 1 2 2 2 1 1 1
7 8 8 7 6 5 5 4 3 3 2 2 2 1 2 4 3 2 2 4 2 1 2 5 6 5 1 1 2 1 1 4 6 7 6 7 7 8 9 7 7 9 8 6 5 6 8 5 4 5 5 6 7 4 3 5 5 5 6 6 6 5 7 6 4 3 3 5 5 5 5 6 8 7 5 4 3 2 1 1 2 3 3 3 3
8 9 8 7 7 6 5 6 5 4 2 3 3 2 3 4 4 2 3 5 4 2 1 2 6 5 1 1 1 0 1 5 7 4 5 7 7 8 9 7 8 10 9 8 8 9 9 7 6 7 8 9 8 6 5 5 5 4 3 3 3 4 6 5 3 1 3 6 5 4 5 7 9 8 6 5 4 2 3 2 2 3 4 4 4
8 8 8 8 8 7 7 7 7 6 5 6 5 5 5 6 5 3 4 6 5 4 2 2 4 4 3 2 3 2 2 5 5 2 4 7 9 11 12 11 12 12 10 10 10 10 11 10 9 8 10 11 10 8 6 5 4 2 1 2 2 3 3 4 3 2 2 4 5 5 7 9 9 8 7 5 5 4 3 4 4 4 5 4 4
8 7 7 8 8 8 8 7 7 7 8 9 8 8 8 8 7 6 7 7 6 6 5 4 3 3 3 5 5 3 4 5 3 3 3 5 10 14 14 13 14 14 14 14 13 13 14 13 11 11 11 11 9 8 7 6 5 4 5 5 5 5 5 6 5 4 2 2 2 4 6 8 8 8 7 5 6 7 6 5 6 7 6 6 6
7 8 8 8 8 8 7 6 5 6 9 11 10 10 10 11 10 9 10 8 7 8 7 6 6 5 4 6 5 3 4 5 3 3 3 3 7 10 12 13 15 14 15 17 18 18 17 14 12 12 12 11 10 8 8 8 7 6 7 8 8 8 8 9 8 7 6 6 4 3 4 5 4 5 6 6 7 8 7 7 7 9 9 9 8
7 8 8 7 8 8 7 7 8 8 11 13 11 11 13 14 13 12 11 10 9 9 8 8 8 6 5 6 6 3 3 4 4 5 6 4 4 5 10 13 13 14 15 17 19 20 19 17 14 12 11 10 9 8 8 8 7 8 9 9 9 10 12 12 12 11 10 9 9 9 9 9 7 3 2 4 4 5 7 8 9 10 10 11 11
7 7 7 8 10 10 8 8 8 9 11 11 11 13 13 14 14 13 13 12 12 11 10 10 8 7 7 8 8 5 3 3 4 6 7 6 5 5 9 11 9 11 15 16 18 17 18 17 16 14 14 13 13 12 12 11 11 11 11 11 11 12 12 13 13 12 11 10 10 11 11 11 11 9 6 4 3 2 1 3 5 5 6 7 8
7 7 7 8 11 11 9 9 9 9 10 10 11 13 12 12 14 15 15 15 15 14 13 12 11 11 10 9 9 7 5 4 5 7 7 7 7 5 9 13 11 12 15 17 18 17 17 17 15 14 14 15 15 14 14 14 13 12 12 12 12 12 12 12 12 12 11 10 10 10 10 11 11 10 9 8 6 5 5 5 4 6 6 4 4
7 8 8 9 10 10 10 10 10 10 10 11 11 11 12 13 14 15 16 16 16 15 13 13 13 13 12 10 11 9 7 6 7 8 8 11 11 7 10 13 11 13 18 18 19 19 19 18 15 13 13 13 13 13 13 13 12 11 10 11 12 11 12 12 11 11 11 10 10 10 10 11 10 9 8 7 6 5 5 6 6 7 7 6 5
8 8 9 9 10 11 11 11 11 10 10 11 10 11 12 13 14 15 16 15 15 15 13 12 11 12 12 12 13 13 10 10 10 9 11 13 10 7 11 14 9 11 15 16 16 17 18 18 16 14 12 10 10 10 10 10 10 10 9 9 10 10 10 11 11 11 11 10 10 10 10 10 10 9 8 7 7 6 6 6 7 8 7 7 7
9 8 9 10 11 12 12 11 11 11 11 11 12 13 13 14 14 15 16 15 16 15 14 14 13 13 13 12 12 13 12 13 12 11 13 12 9 8 11 12 11 12 13 15 16 15 15 16 15 14 12 9 8 8 9 9 10 10 9 9 9 10 10 10 11 11 11 11 11 11 11 11 11 10 10 9 9 8 8 8 8 8 8 8 8
9 9 9 10 11 11 11 11 11 11 11 11 12 13 13 14 14 15 15 15 16 16 15 15 15 14 14 13 12 12 12 12 12 12 13 11 11 14 13 8 7 8 9 13 16 15 14 14 13 12 12 9 7 7 9 9 9 10 11 10 10 10 10 11 11 12 12 12 12 12 11 11 11 11 10 10 10 10 10 9 9 9 9 9 9
10 10 9 10 11 11 11 11 10 10 10 11 11 12 13 14 14 15 15 14 15 16 15 15 14 14 14 13 13 13 13 12 11 11 12 12 13 13 13 10 7 5 5 8 10 11 14 16 13 11 10 9 8 7 9 9 8 9 10 11 11 10 11 12 13 13 13 13 13 12 12 11 11 10 10 10 10 10 10 11 11 10 10 10 10
11 10 10 10 10 10 11 11 10 10 10 11 11 11 12 13 13 14 14 14 15 15 14 14 14 14 14 15 14 13 13 13 12 11 10 10 10 5 4 8 6 3 4 4 5 9 12 14 14 11 9 8 8 8 7 7 7 5 4 8 10 10 11 13 14 14 14 14 14 13 13 12 12 12 11 11 11 12 12 12 12 12 12 12 12
12 11 11 11 10 10 11 11 10 10 10 10 11 11 12 12 12 12 12 13 14 14 14 14 14 14 14 15 15 15 14 13 12 10 10 8 6 6 9 11 11 7 10 7 4 9 11 11 12 12 9 9 9 8 6 6 7 4 1 8 10 8 9 12 12 13 14 15 15 15 14 13 13 13 13 13 13 13 13 14 14 14 14 14 14
11 12 11 11 11 10 10 11 10 11 11 11 10 11 11 11 11 11 11 12 13 13 13 13 13 13 13 13 13 13 13 12 11 9 10 9 7 7 8 10 13 13 16 13 6 6 10 10 9 10 10 9 8 6 5 5 6 5 1 7 9 5 7 9 10 10 11 13 15 16 14 14 14 14 14 14 14 14 14 14 15 15 15 15 15
12 12 11 11 11 11 11 11 10 10 10 10 10 10 10 10 10 10 10 10 11 12 12 12 12 12 12 12 11 11 11 11 10 9 10 11 9 9 8 10 14 15 19 17 10 7 9 9 7 8 8 7 6 6 6 4 4 4 5 2 6 3 3 6 8 8 8 11 16 16 14 13 13 14 14 14 15 15 15 15 16 16 16 16 16
12 12 11 11 11 11 11 11 10 10 9 9 9 8 9 9 9 9 8 9 10 10 10 10 10 11 11 11 10 9 8 7 7 8 7 8 9 10 10 10 12 15 18 19 14 9 8 8 7 7 6 5 7 8 6 1 1 3 8 4 4 1 2 3 4 5 7 9 14 15 14 13 13 13 13 14 14 15 15 15 16 16 16 16 16
12 11 11 11 11 11 11 11 10 10 9 9 8 8 8 8 8 7 7 8 8 8 8 8 9 9 9 9 8 7 6 6 7 7 5 6 9 11 11 11 11 12 15 18 17 12 9 8 7 6 4 2 6 7 4 3 1 1 7 5 4 3 3 2 2 4 6 8 12 14 14 15 14 13 15 16 15 14 15 15 15 15 15 16 16
12 11 10 11 11 11 11 10 10 10 9 9 8 8 8 8 7 6 6 6 7 7 6 7 7 7 7 8 7 6 6 6 7 7 6 9 11 10 10 10 9 10 11 14 16 16 14 10 8 9 6 2 5 8 6 4 2 2 5 4 2 3 2 3 5 7 8 9 11 12 14 16 15 15 17 19 18 17 18 17 15 14 14 14 15
12 11 11 11 11 10 10 10 10 9 9 9 8 8 8 7 7 6 6 5 5 5 4 4 5 6 6 6 5 5 5 5 5 5 4 6 8 7 6 7 6 7 7 5 8 12 13 10 8 9 7 4 5 6 5 3 1 1 4 3 1 4 3 2 7 9 10 11 11 11 14 16 15 15 18 20 20 20 20 19 16 14 13 15 17
12 12 12 12 11 11 10 10 10 10 9 9 8 8 8 7 7 6 6 5 5 4 3 3 3 4 4 4 4 5 4 4 4 4 3 3 5 5 5 7 9 8 4 4 6 6 6 7 8 7 2 4 3 3 5 3 3 3 3 1 2 3 4 4 6 9 13 15 13 11 14 16 15 16 19 21 22 21 20 19 17 15 15 18 20
14 12 13 12 12 12 11 10 10 9 9 8 8 8 8 7 7 7 7 6 6 5 4 4 3 3 3 3 4 4 3 3 3 4 5 3 4 5 6 9 11 9 6 2 4 3 3 4 6 5 1 3 1 3 2 1 4 6 5 0 3 4 6 7 7 9 13 17 14 12 14 15 14 17 20 22 24 24 22 19 17 16 17 19 20
13 12 13 12 12 12 11 10 10 9 9 8 8 9 8 7 7 7 6 6 6 5 5 5 4 4 4 4 4 5 4 3 3 3 4 3 2 3 5 8 9 8 5 1 4 3 3 1 1 3 1 2 3 2 3 5 5 3 2 3 3 5 7 7 8 9 12 14 13 13 13 13 15 18 20 22 25 26 23 20 18 17 17 18 18
12 12 12 12 12 11 9 8 7 6 6 4 3 4 6 6 7 7 6 6 6 5 4 4 4 4 3 5 4 3 4 4 5 5 4 4 2 0 0 2 3 3 3 0 2 2 1 4 2 1 1 2 4 7 5 4 3 1 3 3 3 6 6 7 9 11 12 12 12 13 12 13 17 19 22 24 26 25 22 19 19 18 18 18 17
11 12 12 11 11 10 9 7 6 5 4 3 4 4 5 7 8 9 8 6 5 4 5 6 7 7 6 7 6 4 4 5 7 8 7 6 4 3 2 2 1 1 0 1 2 3 4 5 4 1 3 5 4 7 7 2 1 2 3 4 5 6 7 10 11 11 10 11 12 13 13 15 18 22 25 25 22 20 20 20 20 19 18 17 17
8 10 11 11 10 9 7 5 3 3 3 2 5 6 7 7 7 8 7 7 8 8 9 11 12 10 8 6 6 8 8 7 9 10 8 8 7 5 5 4 3 3 3 2 4 5 5 6 7 5 3 7 8 1 2 1 1 1 1 3 4 7 9 11 11 10 10 11 12 15 18 20 22 24 24 21 19 19 20 20 19 19 19 19 19
8 8 10 10 8 7 6 4 5 5 4 7 10 10 8 7 8 8 5 5 9 12 12 14 14 12 10 9 8 9 10 10 11 11 10 10 10 9 8 7 7 6 5 4 2 3 4 5 7 8 6 6 8 6 4 4 4 5 5 5 6 9 10 10 10 10 10 12 15 21 25 25 23 21 20 19 19 18 18 19 20 20 22 22 21
11 10 8 7 6 5 5 6 7 9 11 15 17 17 15 12 12 12 8 6 9 11 11 13 13 9 10 12 11 9 9 10 12 12 10 8 9 10 10 9 8 8 8 7 5 3 1 2 5 8 8 5 5 5 3 3 5 6 7 7 8 9 10 11 11 12 14 17 22 25 26 23 20 19 20 18 17 17 18 19 20 21 22 22 21
14 13 11 9 7 4 4 6 8 9 12 15 18 19 17 14 15 16 13 11 13 13 11 10 10 9 9 11 11 9 8 8 9 8 6 4 4 6 9 10 10 10 10 9 9 7 5 3 3 6 7 5 3 3 2 4 7 9 10 9 8 9 11 12 14 18 20 21 22 24 22 20 19 20 20 17 16 17 17 17 18 20 22 21 20
15 15 15 13 10 7 4 5 7 8 10 12 15 16 15 15 16 16 13 12 13 12 9 6 8 10 11 11 11 10 9 7 6 5 5 4 4 3 4 6 8 10 11 12 12 12 11 10 8 5 4 3 1 1 3 6 8 8 8 8 9 11 14 16 18 20 20 18 18 21 21 19 18 18 18 18 17 17 17 17 18 20 22 22 22
14 15 15 14 13 11 9 8 9 12 14 14 14 14 13 14 13 11 11 11 10 9 7 7 8 9 10 10 11 12 10 8 7 6 5 4 4 3 2 1 4 7 9 9 10 11 10 10 9 7 6 6 4 3 6 8 9 8 7 9 11 14 16 18 18 18 17 16 16 17 17 17 18 19 20 20 19 19 20 20 21 21 21 22 23
10 11 12 12 13 12 11 12 13 15 16 16 14 13 12 11 10 9 10 9 9 10 10 9 9 10 10 9 11 14 12 10 9 8 6 4 4 4 4 4 5 7 6 5 6 7 8 7 7 8 8 7 6 7 9 9 10 10 10 12 12 12 13 16 16 16 16 15 15 16 18 19 19 20 21 21 21 22 22 22 22 21 20 19 20
9 10 10 11 12 12 12 14 14 13 14 16 14 12 11 11 10 11 11 9 11 12 11 10 10 13 12 9 10 13 11 8 8 6 5 5 5 5 5 7 8 7 5 5 5 6 7 8 8 8 8 8 9 10 10 11 11 11 12 12 10 9 10 12 13 15 15 15 15 16 17 17 17 18 21 22 22 22 22 21 21 20 19 20 21
9 11 11 11 11 11 13 14 12 11 13 15 13 12 12 12 12 13 13 12 13 13 14 10 9 12 13 9 7 9 9 7 5 3 2 3 5 4 4 7 9 8 6 7 6 5 7 10 10 10 11 10 11 11 12 12 12 12 12 10 7 7 8 9 11 14 14 14 15 14 14 15 16 17 20 22 22 21 20 19 19 21 21 21 21
8 10 9 8 9 11 13 13 13 13 12 13 15 15 14 14 13 15 15 15 12 15 17 12 9 10 11 10 8 7 7 4 2 2 2 3 5 4 4 5 6 6 7 7 5 2 2 5 7 8 10 11 11 12 11 11 11 11 10 8 6 6 7 8 11 12 11 10 12 14 15 16 16 17 19 18 15 15 19 20 22 24 24 24 24
Wind_Direction
193 195 182 182 190 211 215 214 214 214 220 226 229 235 237 237 245 263 266 272 291 311 317 304 284 278 263 247 230 215 181 185 196 174 184 184 155 144 145 147 150 152 150 147 144 141 141 136 128 122 135 143 104 92 94 92 92 91 88 85 83 80 78 77 79 82 84 86 87 87 89 96 100 99 94 93 95 92 94 95 92 88 86 85 85
179 206 209 196 197 209 206 208 219 217 215 225 226 232 240 234 236 242 246 269 291 298 291 270 265 276 271 266 239 211 180 197 212 179 177 182 156 141 140 148 153 154 152 148 146 145 147 146 140 136 147 160 141 107 94 95 97 92 87 84 81 79 81 81 81 82 82 84 86 89 89 89 95 99 96 94 91 88 95 98 93 88 87 85 84
186 203 210 201 206 219 211 214 227 220 215 223 224 232 237 235 248 245 244 283 279 265 274 264 264 269 273 291 270 220 180 196 226 188 165 169 161 145 140 149 157 158 158 153 154 156 157 159 154 148 151 161 161 127 87 100 106 96 89 82 76 75 79 83 86 86 85 87 88 89 89 87 89 93 93 92 90 88 93 99 96 91 87 86 84
194 195 196 186 181 205 219 238 241 228 229 229 225 226 227 240 261 252 245 260 234 245 264 262 269 270 273 307 308 251 191 188 232 201 166 162 152 143 142 147 156 165 166 162 165 167 166 168 163 153 151 155 169 150 92 108 110 102 95 82 76 75 78 85 88 89 89 91 92 90 87 84 84 87 90 90 92 91 92 99 99 97 91 88 88
193 192 198 187 168 173 189 210 221 224 231 233 234 230 227 259 285 255 233 211 229 252 258 259 269 277 285 311 334 318 221 188 227 206 154 146 132 125 138 144 152 164 172 173 176 174 168 168 165 157 154 150 158 156 114 118 121 119 104 84 83 79 80 88 92 93 93 95 94 92 88 84 83 85 89 90 90 91 92 97 99 103 101 97 94
192 190 193 186 170 165 176 192 202 210 223 228 232 226 223 249 280 239 215 231 265 268 266 270 271 271 296 321 341 349 8 52 154 131 96 108 120 124 138 148 149 159 174 181 183 178 169 163 161 159 157 152 154 155 138 142 159 151 118 92 91 83 85 88 90 99 100 102 97 93 91 86 86 88 91 92 90 95 95 95 98 101 106 105 97
181 180 176 175 166 164 175 185 192 197 213 221 218 211 214 226 243 232 221 276 283 285 286 285 288 282 320 342 343 2 22 37 50 71 92 110 136 144 151 156 150 156 172 178 181 181 181 176 171 170 162 154 156 158 149 148 158 155 124 102 91 82 91 86 82 88 93 106 106 98 95 87 85 87 90 92 93 99 98 97 96 84 96 111 102
168 168 168 168 163 168 177 179 183 187 196 206 203 197 198 194 199 203 177 312 310 311 301 290 298 305 360 7 347 12 34 49 66 78 106 130 147 153 162 163 154 159 165 168 170 170 182 188 189 193 181 165 158 154 149 140 142 141 121 103 86 67 80 95 85 77 77 93 100 100 96 84 79 81 85 85 89 97 98 101 96 83 92 114 111
157 159 162 154 155 167 176 179 172 170 180 179 181 181 172 166 172 192 195 106 13 346 316 299 324 338 8 25 20 34 44 77 102 94 97 124 142 152 166 175 171 168 158 160 166 157 159 171 183 196 190 181 168 152 143 135 127 120 104 105 89 61 57 94 90 69 74 84 90 97 91 75 65 72 89 82 82 92 100 105 101 96 96 104 116
141 147 144 136 151 169 181 185 170 169 179 165 168 177 161 161 160 177 280 114 77 358 350 338 17 16 18 39 43 53 51 72 96 97 98 119 137 148 154 166 178 175 163 160 161 157 155 153 156 156 154 167 166 156 149 140 131 118 113 120 97 61 55 89 90 58 52 56 78 98 95 80 64 65 90 87 85 91 98 107 106 110 108 106 117
133 140 136 142 167 170 172 178 162 162 172 162 165 177 170 158 145 150 312 104 73 354 10 24 51 37 50 62 46 45 57 68 88 92 102 121 132 146 147 152 164 166 169 168 158 157 160 154 150 146 135 136 148 159 157 148 156 167 160 169 168 83 56 94 78 351 355 10 33 87 95 76 67 66 71 76 93 93 94 100 99 106 119 127 127
121 128 132 160 176 139 139 152 147 149 156 167 164 159 179 158 134 153 153 111 75 334 309 61 87 62 62 72 58 45 57 70 91 94 108 125 124 137 148 154 157 153 165 173 166 163 165 164 161 151 131 125 132 147 150 157 180 206 199 191 200 214 234 228 236 292 306 323 339 334 30 43 35 48 51 56 98 107 98 95 92 95 105 130 151
108 113 118 135 133 112 118 128 155 172 154 158 158 153 164 142 123 117 122 121 67 45 212 87 90 87 81 79 81 83 65 71 91 97 109 120 121 134 144 150 151 151 160 168 172 176 177 178 169 134 126 140 148 144 152 173 181 205 218 206 211 219 230 235 232 257 275 283 297 313 331 345 333 346 4 17 45 225 229 139 97 93 82 104 163
103 104 101 92 92 107 116 122 170 182 155 150 155 162 165 151 126 111 119 97 38 63 129 97 89 97 116 113 98 95 76 75 85 95 108 118 124 130 129 136 140 143 151 155 168 176 170 176 165 131 161 172 173 170 180 184 186 202 212 218 225 227 235 246 253 257 268 280 282 286 303 318 317 318 331 344 334 257 253 266 248 137 56 94 196
106 102 102 91 88 96 90 94 130 123 132 153 154 175 183 172 136 109 119 94 56 69 113 99 92 90 113 127 125 119 90 83 81 85 100 111 114 110 111 128 135 134 138 137 146 134 126 147 136 130 174 184 184 188 191 191 199 210 214 226 229 235 245 244 254 274 284 290 283 267 270 283 293 298 309 315 291 269 259 264 269 264 263 264 255
93 94 96 91 98 98 88 83 67 59 51 96 129 162 155 156 146 109 113 107 81 66 127 115 111 107 92 95 149 188 104 112 102 84 88 98 99 104 115 128 122 123 134 128 115 106 107 119 118 107 122 157 172 174 173 183 192 199 213 228 231 238 253 258 268 290 279 272 268 267 273 271 273 278 283 290 287 289 306 268 261 263 252 253 261
84 87 88 85 91 90 93 94 79 68 52 58 73 73 88 117 128 121 120 109 83 58 84 103 105 120 195 2 138 260 56 128 125 82 74 93 93 102 115 118 108 113 121 112 100 99 101 110 124 116 116 135 151 152 147 152 162 178 203 225 247 257 270 288 311 314 263 270 269 263 266 259 259 262 263 279 295 322 330 297 266 273 267 254 257
89 88 86 86 89 83 86 90 86 82 76 75 73 67 78 90 90 93 108 110 103 87 69 73 93 125 164 93 79 69 95 130 134 90 74 87 90 97 101 101 99 102 105 102 95 97 102 111 120 119 118 125 131 132 132 130 136 132 37 10 322 307 316 329 346 344 278 289 293 268 254 251 255 256 251 266 280 280 292 295 291 291 286 276 276
99 97 93 90 86 84 89 94 99 94 84 79 74 70 75 81 85 82 85 98 112 108 101 107 111 124 126 101 93 98 101 102 115 146 123 93 99 101 100 102 101 100 100 103 105 106 110 114 115 111 109 113 111 106 106 102 94 74 57 44 28 29 24 16 20 24 25 354 312 276 266 271 273 263 250 242 250 252 252 270 285 285 285 287 288
104 101 100 97 88 84 82 76 84 105 102 87 75 74 76 79 89 93 89 93 110 116 114 117 127 131 116 109 116 112 98 92 94 128 130 120 111 100 100 105 105 105 105 107 111 111 111 110 111 113 108 108 107 100 100 99 91 79 67 55 44 43 40 38 44 53 61 63 52 18 336 334 323 275 259 245 243 248 247 253 266 269 274 278 278
101 102 102 100 98 94 84 67 57 73 94 91 85 85 81 79 85 91 93 94 102 110 109 107 116 129 119 110 115 106 100 102 89 90 93 107 123 111 111 109 105 111 113 112 111 107 104 99 94 102 105 103 104 102 102 100 95 83 68 59 56 56 57 60 63 69 73 72 64 59 52 45 46 41 285 264 251 252 253 255 260 266 272 273 274
98 102 99 90 92 92 91 86 70 68 83 95 98 91 83 80 81 85 90 90 95 101 104 107 113 122 117 109 114 127 143 120 111 111 96 90 108 124 127 121 119 124 119 117 116 108 104 100 91 92 96 95 95 95 95 93 86 79 70 62 60 61 62 62 63 68 73 73 69 67 63 55 55 61 67 66 67 53 325 285 286 304 306 288 285
101 100 96 88 89 91 93 94 87 82 86 95 99 93 87 87 83 82 84 85 88 91 96 101 105 109 109 106 117 140 156 135 136 141 123 112 121 128 126 124 130 134 124 120 121 116 111 109 103 96 93 91 91 89 87 84 78 72 69 66 62 62 61 60 61 64 65 63 57 53 45 41 42 50 59 61 58 45 25 16 8 5 5 350 330
111 107 104 98 96 97 96 96 94 90 88 89 94 96 94 92 90 86 85 85 86 88 91 93 96 102 103 102 105 117 133 127 125 130 125 131 144 153 134 125 126 134 135 131 127 124 121 118 112 105 95 88 86 87 83 79 76 69 66 67 62 59 59 57 57 55 54 53 47 42 36 34 34 34 34 32 27 15 358 348 344 345 346 348 346
119 115 111 107 104 102 99 98 98 96 93 89 93 102 100 94 92 90 88 89 89 89 88 88 93 101 105 104 98 95 102 109 113 123 129 139 157 156 128 129 129 124 126 122 114 111 112 111 110 108 105 98 87 85 84 80 79 73 64 66 64 58 56 52 49 47 45 43 40 38 35 34 33 33 29 21 16 9 1 351 346 346 346 346 341
128 122 114 111 107 103 102 101 99 97 94 87 88 96 98 95 93 92 91 91 92 91 87 84 84 90 98 98 93 91 97 102 105 117 127 141 162 147 123 129 134 126 123 114 103 98 99 102 107 108 110 109 94 80 80 83 85 76 63 61 60 56 54 51 47 43 40 37 35 33 31 29 27 25 23 21 17 12 9 6 1 358 356 354 349
133 124 118 115 110 106 104 103 101 99 97 92 90 93 95 97 95 93 92 91 92 91 87 84 79 82 90 89 81 80 92 106 112 115 121 131 142 139 137 139 135 138 137 118 107 106 109 110 112 117 119 116 106 84 73 76 83 74 58 52 55 54 51 49 44 38 35 31 28 25 22 21 19 15 13 9 6 3 360 358 355 353 352 349 349
136 130 124 118 113 110 108 107 104 102 102 99 96 95 95 97 97 95 94 94 93 91 88 84 79 81 87 87 79 71 77 94 104 109 123 140 150 154 158 153 144 152 136 110 114 122 122 119 116 118 121 113 105 93 78 71 73 64 49 43 47 54 55 51 45 39 35 30 25 21 16 12 8 3 0 355 352 350 346 344 342 340 340 338 337
143 137 130 124 120 117 114 112 109 105 103 101 97 95 94 94 95 95 95 95 94 93 92 89 85 85 87 88 86 79 79 82 81 80 91 123 145 150 121 112 102 125 135 111 111 117 118 122 121 119 117 108 106 106 93 81 78 72 37 31 38 54 58 49 42 37 32 28 23 18 13 8 3 358 354 348 343 339 334 331 330 328 328 327 326
150 146 140 134 127 124 119 115 113 110 107 103 101 99 96 94 94 95 96 97 96 94 94 92 90 91 90 89 89 87 85 83 80 75 68 85 108 54 50 65 52 72 129 128 88 97 101 107 119 131 133 122 118 115 105 97 109 141 53 26 32 48 53 42 34 29 23 20 17 13 9 5 1 357 353 349 345 341 337 332 328 325 322 320 318
159 155 150 142 134 131 127 122 119 117 112 107 105 102 99 97 96 96 98 98 99 98 96 93 90 91 90 90 91 90 89 86 84 82 68 71 91 73 62 63 57 84 122 120 94 102 105 100 108 126 134 132 135 130 103 88 103 148 164 25 29 42 50 38 26 20 16 12 8 5 4 2 359 356 353 350 348 344 342 339 334 331 327 323 321
167 163 157 151 145 140 135 131 126 122 119 114 112 108 104 104 101 102 103 99 99 100 98 95 91 90 88 87 86 86 90 89 89 91 76 72 85 89 84 73 68 93 114 107 94 96 108 121 122 120 133 150 160 145 118 81 59 135 181 359 19 48 61 35 20 14 7 4 4 3 3 1 357 355 351 348 346 344 341 338 334 331 328 325 322
173 169 167 161 156 150 145 142 137 133 130 124 119 115 113 115 109 105 104 102 104 104 101 100 99 97 96 93 88 89 94 87 92 110 102 96 104 100 98 91 80 98 113 110 108 105 109 138 138 125 151 162 149 137 118 97 343 170 191 234 335 210 151 63 19 1 356 354 360 4 6 4 358 356 353 346 341 338 334 332 329 327 324 322 319
176 175 177 172 166 161 154 150 147 144 140 133 130 129 124 121 115 110 110 110 111 109 105 110 109 104 104 105 102 102 98 71 73 92 80 82 102 95 90 93 86 97 118 124 128 131 135 147 142 139 157 137 143 160 148 124 76 186 194 226 299 240 185 67 7 340 342 336 343 351 359 3 2 2 0 354 347 341 335 329 323 319 316 316 315
179 181 186 180 175 170 162 160 156 153 151 145 143 144 138 131 125 121 119 120 121 117 115 124 119 111 111 111 107 108 101 71 66 80 62 60 85 93 83 84 79 80 104 127 137 147 154 159 160 153 147 93 126 160 171 152 112 104 158 194 260 180 159 9 344 326 324 325 325 331 342 351 355 356 358 357 352 347 342 336 327 320 316 316 317
183 185 190 186 184 180 173 170 166 163 164 159 156 157 151 147 146 143 140 137 136 133 132 134 127 125 128 124 122 119 109 98 87 95 94 66 85 114 107 105 115 93 78 91 121 143 153 156 155 144 147 170 149 156 189 180 127 150 151 148 128 128 119 355 329 324 325 321 312 314 332 343 347 347 348 348 345 341 340 339 335 328 326 325 324
188 190 191 190 192 189 184 180 176 174 173 169 169 173 168 165 166 162 162 165 163 166 165 150 139 142 145 143 147 143 130 132 118 114 142 92 75 105 105 108 126 122 96 44 57 102 136 135 138 136 168 221 186 166 194 153 38 307 259 109 74 67 46 10 342 335 329 317 304 308 330 340 342 342 342 340 337 332 331 332 330 326 325 325 326
192 193 190 193 197 194 192 190 186 183 184 186 184 184 182 181 183 181 181 183 179 184 193 185 183 184 180 181 167 156 149 153 141 120 132 113 73 83 83 93 110 113 113 85 28 54 98 100 131 143 207 271 335 53 122 92 348 305 280 347 63 37 16 3 351 339 327 315 305 309 327 337 340 339 336 334 331 326 322 320 318 316 316 319 322
194 193 191 199 203 198 197 197 194 189 192 200 204 201 196 188 193 196 195 197 195 197 203 199 208 217 204 208 204 186 181 172 163 148 145 148 111 90 86 98 108 100 95 65 339 35 87 38 115 141 146 262 262 286 316 318 319 327 77 88 53 5 352 348 342 332 323 319 315 317 328 335 333 329 326 324 323 320 314 311 309 307 309 312 315
194 195 196 205 208 205 209 212 218 221 208 218 290 260 224 212 211 209 206 215 219 221 232 234 246 264 286 304 294 202 196 201 183 175 179 186 183 164 125 117 103 77 88 170 331 17 272 272 280 228 276 293 239 224 243 291 306 17 52 45 348 339 337 335 330 319 313 316 316 312 312 316 316 316 315 315 317 315 310 309 308 307 306 302 302
199 202 208 214 213 213 219 220 237 260 248 258 309 283 238 231 224 217 221 239 264 303 300 275 264 260 270 297 294 247 246 245 203 188 190 189 176 165 200 225 283 348 126 218 270 290 284 290 307 287 270 306 286 212 205 224 235 241 306 321 321 326 326 321 315 307 305 312 311 305 303 307 309 310 311 313 316 314 311 309 307 305 304 297 295
197 202 211 220 221 219 216 202 219 283 324 284 251 232 231 238 232 234 250 256 261 277 276 263 262 259 248 253 249 228 236 248 225 214 215 212 206 200 192 187 182 178 178 216 270 299 318 322 328 344 358 339 337 322 162 47 70 130 22 1 342 330 323 316 310 306 307 310 315 312 308 307 308 309 310 311 311 311 311 311 310 308 306 301 298
210 211 213 218 223 223 214 197 212 227 226 233 236 234 239 245 244 252 263 241 242 253 258 258 264 265 248 236 232 221 219 227 233 236 243 242 235 227 212 195 187 187 190 196 232 309 342 348 345 353 5 1 5 28 44 32 51 58 35 15 350 334 326 318 313 312 307 308 315 312 306 308 311 308 306 307 307 309 312 313 314 313 311 308 302
231 231 227 223 225 227 231 238 241 229 219 225 235 243 250 254 257 260 259 256 259 262 266 266 263 254 235 225 220 214 213 224 235 241 244 242 237 233 224 216 211 207 208 215 221 234 314 18 11 5 6 13 24 29 15 355 3 2 352 345 339 331 324 321 316 306 303 309 312 306 302 309 315 305 299 302 305 306 307 307 308 310 312 310 305
238 234 228 224 216 209 224 235 234 228 225 227 234 244 251 253 259 264 264 264 264 262 270 270 248 224 216 216 208 198 202 217 225 228 229 225 227 231 229 232 236 232 227 233 240 245 259 277 316 355 2 10 43 50 3 334 338 339 337 332 324 312 308 308 303 300 306 313 311 300 295 305 312 302 294 298 303 305 307 308 310 312 314 313 310
230 228 226 225 221 215 219 217 208 215 230 234 234 241 248 251 259 264 256 249 253 256 260 245 216 205 201 203 198 188 189 196 191 197 217 225 222 226 233 240 245 246 245 245 248 253 259 266 272 291 310 295 153 79 317 319 328 330 326 316 306 302 303 303 302 305 312 319 311 294 286 296 309 305 299 305 310 311 310 311 311 312 312 310 309
217 221 225 228 229 227 226 227 228 232 238 239 236 239 245 248 252 247 229 223 230 235 221 195 193 193 191 198 197 186 182 179 170 175 188 200 216 220 201 208 228 238 248 254 258 258 257 261 261 249 240 237 232 277 307 316 319 312 301 297 300 304 306 305 305 307 312 316 311 299 293 302 313 312 310 312 314 314 313 311 310 309 307 305 303
210 217 223 229 235 234 228 224 227 232 236 237 238 240 240 233 220 207 200 201 214 220 208 194 191 188 188 187 178 172 172 171 173 178 176 175 202 205 170 162 205 228 246 268 274 265 251 243 234 219 218 233 258 288 303 307 304 298 294 298 303 310 313 309 307 308 308 310 311 310 310 314 318 317 315 314 314 312 312 310 309 310 309 309 310
205 212 219 224 228 231 233 232 231 233 239 240 235 227 218 206 197 191 187 202 224 215 193 181 173 170 169 157 149 160 166 166 174 187 195 191 195 203 193 186 196 214 246 272 270 260 246 236 229 230 241 260 278 293 301 303 303 301 299 298 300 308 312 309 305 305 307 309 309 309 310 314 319 320 318 317 315 313 311 310 311 313 311 311 314
213 220 230 236 234 234 239 240 237 235 237 232 220 208 202 198 196 193 198 222 226 188 165 169 172 168 168 157 145 163 169 165 172 184 199 191 182 194 216 202 193 200 231 255 260 256 251 247 246 252 260 272 286 296 303 307 308 302 296 292 292 296 297 296 296 299 305 312 312 313 320 325 324 322 319 316 313 311 311 311 314 318 320 321 323
223 226 231 240 239 234 233 225 212 210 216 211 202 200 201 201 202 201 211 236 228 175 159 169 176 173 180 180 171 172 173 171 187 196 204 193 177 185 220 214 194 187 207 235 250 263 269 261 262 269 279 290 301 307 311 313 310 302 291 281 276 277 277 278 283 288 295 299 303 317 334 339 333 328 326 321 315 313 314 313 313 315 319 323 325